Tracking 30509 objects as of 21-May-2025
HD Live streaming from Space Station
objects crossing your sky now

SL-14 R/B

Track SL-14 R/B now!
10-day predictions


NORAD ID: 12988
Int'l Code: 1981-117B
Perigee: 602.7 km
Apogee: 626.9 km
Inclination: 82.5 °
Period: 96.8 minutes
Semi major axis: 6985 km
RCS: 4.5053 m2 (large)
Launch date: December 3, 1981
Source: Commonwealth of Independent States (former USSR) (CIS)
Launch site: PLESETSK MISSILE AND SPACE COMPLEX (PKMTR)

Note: This is a ROCKET BODY
Your satellite tracking list
Your tracking list is empty




NASA's NSSDC Master Catalog

Two Line Element Set (TLE):
1 12988U 81117B   25140.77335690  .00000467  00000-0  49456-4 0  9997
2 12988  82.5250 236.2435 0017283   2.9784 357.1533 14.86889637328389
Source of the keplerian elements: AFSPC